Showing default

OPS 7218 (TRANSIT 16), 2807

Orbit data source: Space-Track

OPS 7218 (TRANSIT 16), 2807 is a payload satellite owned by USN NAVAIR (US) in LEO that was launched on Thu, 18 May 1967 UTC via an SCOUT A launch vehicle from the Air Force Western Test Range (AFWTR). Payloads include a variety of satellites, spacecraft, and rockets equipped with specific instruments for various scientific and technological missions. These include communications satellites like Starlink; space stations such as the ISS; scientific satellites like the Hubble; Earth observation satellites from companies like Planet Labs, Umbra, and HawkEye 360; GPS; miniature CubeSats for education and research; and military/defense satellites.

Loading next visibility...
OPS 7218 (TRANSIT 16) details
Identifier
2807, 1967-048A
Orbit
LEO
Last TLE update15 hours ago
Origin
Flag of USUSN NAVAIR (US)
ManufacturerAPL
MissionDefense Navigation
Bus & MotorTRANSIT 5, Unknown motor
Mass~50 kg wet, ~50 kg dry
Launch date (UTC)
1967-05-18 (58 years ago)
Launch vehicle
SCOUT A
Launch site
Air Force Western Test Range (AFWTR)
Object type
Payload
Rocket body
Debris
Shape & HBROct Cyl + 4 Pan + 1 Rod, Unknown HBR
Radar Cross Section7.565 m², Large (>1 m²)

Expand to show TLE details & history

TLE from 15 hours ago
0 OPS 7218 (TRANSIT 16)
1 02807U 67048A   24355.90024352  .00000157  00000-0  22724-3 0  9999
2 02807  89.6729   5.6755 0022038  70.2406 346.0613 13.50611480834593
Epoch: 2024-12-20T21:36Z
Definitive object data (Epoch: 2024-12-20T21:36:21.04Z)
Latitude56.333°
Longitude-47.88273°
Altitude1,063.558 km
Speed7.333 km/s
True Right ascension00h 24m 39s
True Declination56° 10' 50"
Sunlit
Object was in daylight at TLE epoch
Visualization TLE readout
Latitude-72.93069°
Longitude-49.45233°
Altitude1,109.729 km
Speed7.291 km/s
Apparent Right ascension00h 05m 48s
Apparent Declination-57° 39' 09"
Sunlit
Object is in daylight
Visualization observer readout
Local Sidereal Time12:00:09
Azimuth182.478° SSW
Elevation-72.24°
Doppler factor1
Orbital elements
Apogee altitude1,083.467 km
Perigee altitude1,050.651 km
Semi-major axis7,445.196 km
Eccentricity0.0022038
Inclination89.6729°
RAAN5.6755°
Arg. of periapsis70.2406°
True anomaly346.0003°
Mean anomaly346.0613°
Eccentric anomaly346.03082°
Mean motion3.37854 °/min
BSTAR0.00022724
Orbital period106.55 mins
Loading maneuver chart data...
Loading historical data...
Loading historical data...
Loading historical data...
Loading historical data...
Loading historical data...
Loading historical data...
Loading historical data...

OPS 7218 (TRANSIT 16) Visibility forecast

Observer location: undefined°, undefined

Span
Click to sort rows by Start time (UTC) header in descending order
Start Az.
Max El. time (UTC)
Max El. Az.
Max El.
End time (UTC)
End Az.
11 mins2024-12-21 13:55:16.505Z347.082° N2024-12-21 14:01:16.505Z272.591° WNW34.644°2024-12-21 14:06:16.505Z213.394° SW
9 mins2024-12-22 00:08:16.505Z123.309° SE2024-12-22 00:12:16.505Z76.708° E24.845°2024-12-22 00:17:16.505Z23.191° NE
11 mins2024-12-22 01:53:16.505Z205.058° SW2024-12-22 01:58:16.505Z268.837° W35.637°2024-12-22 02:04:16.505Z344.528° N
|